Location: The Dilly Hill Observatory
(31.5262°N, 86.8310°W)
Time: 14:58:14
(UTC-06:00)

N. Korean satellite - Visible Passes

Search period start: 19 January 2018 00:00
Search period end: 29 January 2018 00:00
Orbit: 459 x 515 km, 97.2° (Epoch: 19 January)

Date Brightness Start Highest point End Pass type
(mag) Time Alt. Az. Time Alt. Az. Time Alt. Az.
19 Jan 7.2 06:15:23 10° NNE 06:18:47 60° E 06:22:11 10° S visible
19 Jan 8.6 18:19:58 10° SSW 18:23:15 31° W 18:26:30 10° NNW visible
20 Jan 9.1 05:52:10 10° NE 05:55:05 25° E 05:58:00 10° SSE visible
20 Jan 6.8 17:55:58 10° S 17:59:35 74° W 18:03:09 10° NNW visible
21 Jan 10.1 05:29:57 10° ENE 05:31:19 12° E 05:32:41 10° ESE visible
21 Jan 6.8 17:32:29 10° SSE 17:35:58 47° ENE 17:39:24 10° N visible
22 Jan 9.9 18:43:38 10° SW 18:45:49 15° W 18:48:00 10° WNW visible
23 Jan 7.2 06:14:11 10° NNE 06:17:35 58° E 06:21:01 10° S visible
23 Jan 8.6 18:18:50 10° SSW 18:22:05 32° W 18:25:18 10° NNW visible
24 Jan 9.1 05:50:59 10° NE 05:53:53 25° E 05:56:48 10° SSE visible
24 Jan 6.7 17:54:49 10° S 17:58:24 76° W 18:01:56 10° NNW visible
25 Jan 10.1 05:28:48 10° ENE 05:30:07 12° E 05:31:25 10° ESE visible
26 Jan 9.9 18:42:25 10° SW 18:44:37 15° W 18:46:48 10° WNW visible
27 Jan 7.3 06:12:57 10° NNE 06:16:22 56° E 06:19:49 10° S visible
27 Jan 8.5 18:17:38 10° SSW 18:20:52 33° W 18:24:04 10° NNW visible
28 Jan 9.2 05:49:45 10° NE 05:52:40 24° E 05:55:34 10° SSE visible
28 Jan 6.7 17:53:38 10° S 17:57:11 78° W 18:00:41 10° NNW visible
